Mena, AR

5:14 AM CST on January 21, 2017 (GMT -0600)
Mena

Weather History for KMEZ - January, 2013

Change the Weather History Date:

Thursday, January 10, 2013

  Actual Average (KFSM) Record (KFSM)
Temperature  
Mean Temperature 58 °F -  
Max Temperature 64 °F 48 °F 75 °F (1990)
Min Temperature 51 °F 29 °F -8 °F (1977)
Degree Days  
Heating Degree Days 8    
Growing Degree Days 8 (Base 50)    
Moisture  
Dew Point 53 °F    
Average Humidity 87    
Maximum Humidity 100    
Minimum Humidity 67    
Precipitation  
Precipitation 0.02 in - - ()
Sea Level Pressure  
Sea Level Pressure 29.96 in    
Wind  
Wind Speed 8 mph (SSE)    
Max Wind Speed 14 mph    
Max Gust Speed 22 mph    
Visibility 7 miles    
Events Fog , Rain    
Averages and records for this station are not official NWS values.
T = Trace of Precipitation, MM = Missing Value Source: NWS Daily Summary

Daily Weather History Graph

Daily Weather History Graph

Search for Another Location

Airport or City:

Trip Planner

Search our weather history database for the weather conditions in past years. The results will help you decide how hot, cold, wet, or windy it might be!

Date:

Astronomy

Jan. 10, 2013 Rise Set
Actual Time 7:24 AM CST 5:25 PM CST
Civil Twilight 6:56 AM CST 5:52 PM CST
Nautical Twilight 6:25 AM CST 6:23 PM CST
Astronomical Twilight 5:55 AM CST 6:54 PM CST
Moon 6:04 AM CST (1/10) 4:33 PM CST (1/10)
Length of Visible Light 10h 56m
Length of Day
10h 01m
Waning Crescent, 2% of the Moon is Illuminated
Jan 10
Waning Crescent
Jan 11
New
Jan 18
First Quarter
Jan 26
Full
Feb 3
Last Quarter

Hourly Weather History & Observations

Time (CST) Temp. Dew Point Humidity Pressure Visibility Wind Dir Wind Speed Gust Speed Precip Events Conditions
12:15 AM 53.6 °F 53.6 °F 100% 30.15 in 10.0 mi East 11.5 mph - N/A   Overcast
12:35 AM 53.6 °F 53.6 °F 100% 30.15 in 3.0 mi East 13.8 mph 21.9 mph N/A Rain Rain
12:55 AM 53.6 °F 53.6 °F 100% 30.15 in 2.5 mi East 11.5 mph 19.6 mph N/A Rain Rain
2:15 AM 53.6 °F 53.6 °F 100% 30.12 in 10.0 mi East 11.5 mph 16.1 mph N/A   Overcast
2:35 AM 53.6 °F 53.6 °F 100% 30.11 in 5.0 mi East 9.2 mph - N/A Rain Light Rain
3:15 AM 53.6 °F 53.6 °F 100% 30.10 in 4.0 mi East 9.2 mph - N/A   Light Drizzle
3:35 AM 53.6 °F 53.6 °F 100% 30.08 in 2.5 mi East 9.2 mph - N/A   Light Drizzle
4:15 AM 53.6 °F 53.6 °F 100% 30.07 in 3.0 mi ENE 8.1 mph - N/A   Light Drizzle
4:35 AM 53.6 °F 53.6 °F 100% 30.06 in 4.0 mi ENE 6.9 mph - N/A Rain Light Rain
4:55 AM 53.6 °F 53.6 °F 100% 30.06 in 4.0 mi ENE 8.1 mph - N/A   Light Drizzle
5:15 AM 53.6 °F 53.6 °F 100% 30.04 in 3.0 mi ENE 5.8 mph - N/A   Drizzle
5:35 AM 53.6 °F 53.6 °F 100% 30.04 in 4.0 mi ENE 4.6 mph - N/A   Drizzle
5:55 AM 53.6 °F 53.6 °F 100% 30.04 in 5.0 mi ENE 6.9 mph - N/A   Overcast
6:15 AM 53.6 °F 53.6 °F 100% 30.03 in 5.0 mi ENE 6.9 mph - N/A   Light Drizzle
6:35 AM 53.6 °F 53.6 °F 100% 30.01 in 7.0 mi East 8.1 mph - N/A   Overcast
6:55 AM 53.6 °F 53.6 °F 100% 30.00 in 4.0 mi ENE 5.8 mph - N/A   Drizzle
7:15 AM 53.6 °F 53.6 °F 100% 30.01 in 10.0 mi ENE 4.6 mph - N/A   Overcast
7:35 AM 53.6 °F 53.6 °F 100% 30.01 in 4.0 mi ENE 4.6 mph - N/A Rain Heavy Rain
7:55 AM 53.6 °F 53.6 °F 100% 30.01 in 5.0 mi ENE 4.6 mph - N/A   Light Drizzle
8:15 AM 53.6 °F 53.6 °F 100% 30.02 in 5.0 mi East 4.6 mph - N/A Rain Heavy Rain
8:35 AM 55.4 °F 55.4 °F 100% 30.01 in 1.0 mi Calm Calm - N/A   Drizzle
9:15 AM 55.4 °F 55.4 °F 100% 29.99 in 0.2 mi Calm Calm - N/A Fog Fog
9:35 AM 55.4 °F 55.4 °F 100% 29.99 in 0.2 mi Calm Calm - N/A Fog Fog
9:55 AM 55.4 °F 55.4 °F 100% 29.98 in 0.2 mi NNE 3.5 mph - N/A Fog Fog
10:15 AM 57.2 °F 57.2 °F 100% 29.98 in 1.0 mi NE 3.5 mph - N/A   Overcast
10:35 AM 59.0 °F 59.0 °F 100% 29.98 in 4.0 mi NE 4.6 mph - N/A   Overcast
11:15 AM 62.6 °F 62.6 °F 100% 29.96 in 10.0 mi ESE 6.9 mph - N/A   Overcast
11:35 AM 62.6 °F 62.6 °F 100% 29.94 in 10.0 mi SSE 5.8 mph - N/A   Overcast
12:15 PM 62.6 °F 62.6 °F 100% 29.92 in 10.0 mi SSE 8.1 mph - N/A   Overcast
12:35 PM 62.6 °F 60.8 °F 94% 29.91 in 5.0 mi South 12.7 mph 17.3 mph N/A Rain Rain
12:55 PM 62.6 °F 60.8 °F 94% 29.89 in 10.0 mi South 10.4 mph 18.4 mph N/A   Drizzle
1:15 PM 62.6 °F 60.8 °F 94% 29.87 in 5.0 mi South 12.7 mph 18.4 mph N/A Rain Rain
1:35 PM 62.6 °F 60.8 °F 94% 29.87 in 5.0 mi SSW 9.2 mph 18.4 mph N/A Rain Rain
1:55 PM 62.6 °F 60.8 °F 94% 29.86 in 5.0 mi South 5.8 mph 16.1 mph N/A   Drizzle
2:15 PM 62.6 °F 60.8 °F 94% 29.86 in 7.0 mi South 11.5 mph 19.6 mph N/A   Drizzle
2:35 PM 62.6 °F 60.8 °F 94% 29.85 in 10.0 mi SSW 5.8 mph - N/A   Overcast
2:55 PM 62.6 °F 59.0 °F 88% 29.86 in 10.0 mi SSW 8.1 mph 20.7 mph N/A   Overcast
3:15 PM 64.4 °F 59.0 °F 83% 29.86 in 10.0 mi South 9.2 mph 17.3 mph N/A   Mostly Cloudy
3:35 PM 64.4 °F 53.6 °F 68% 29.86 in 10.0 mi South 5.8 mph 16.1 mph N/A   Scattered Clouds
3:55 PM 62.6 °F 53.6 °F 72% 29.86 in 10.0 mi South 9.2 mph - N/A   Scattered Clouds
4:15 PM 62.6 °F 53.6 °F 72% 29.85 in 10.0 mi Calm Calm - N/A   Scattered Clouds
4:35 PM 62.6 °F 53.6 °F 72% 29.85 in 10.0 mi SSW 5.8 mph - N/A   Scattered Clouds
4:55 PM 62.6 °F 53.6 °F 72% 29.86 in 10.0 mi SSW 5.8 mph - N/A   Overcast
5:15 PM 62.6 °F 53.6 °F 72% 29.86 in 10.0 mi SW 4.6 mph - N/A   Overcast
5:35 PM 62.6 °F 51.8 °F 68% 29.88 in 10.0 mi SW 6.9 mph - N/A   Overcast
6:15 PM 59.0 °F 50.0 °F 72% 29.90 in 10.0 mi WSW 8.1 mph 16.1 mph N/A   Scattered Clouds
6:35 PM 59.0 °F 50.0 °F 72% 29.90 in 10.0 mi WSW 9.2 mph 17.3 mph N/A   Mostly Cloudy
6:55 PM 57.2 °F 48.2 °F 72% 29.91 in 10.0 mi WSW 10.4 mph 17.3 mph N/A   Scattered Clouds
7:15 PM 57.2 °F 48.2 °F 72% 29.92 in 10.0 mi WSW 9.2 mph 17.3 mph N/A   Mostly Cloudy
7:35 PM 55.4 °F 46.4 °F 72% 29.92 in 10.0 mi WSW 10.4 mph - N/A   Scattered Clouds
7:55 PM 55.4 °F 46.4 °F 72% 29.93 in 10.0 mi WSW 9.2 mph - N/A   Clear
8:15 PM 55.4 °F 44.6 °F 67% 29.93 in 10.0 mi SW 9.2 mph 20.7 mph N/A   Scattered Clouds
8:35 PM 55.4 °F 44.6 °F 67% 29.94 in 10.0 mi SW 8.1 mph - N/A   Mostly Cloudy
8:55 PM 55.4 °F 44.6 °F 67% 29.94 in 10.0 mi SW 9.2 mph 17.3 mph N/A   Mostly Cloudy
9:15 PM 55.4 °F 44.6 °F 67% 29.94 in 10.0 mi SSW 6.9 mph - N/A   Clear
9:35 PM 53.6 °F 44.6 °F 72% 29.94 in 10.0 mi SW 4.6 mph - N/A   Clear
9:55 PM 53.6 °F 44.6 °F 72% 29.95 in 10.0 mi SW 8.1 mph - N/A   Clear
10:15 PM 53.6 °F 44.6 °F 72% 29.95 in 10.0 mi SW 6.9 mph - N/A   Clear
10:35 PM 53.6 °F 42.8 °F 67% 29.94 in 10.0 mi SW 10.4 mph 16.1 mph N/A   Clear
10:55 PM 53.6 °F 42.8 °F 67% 29.94 in 10.0 mi SW 8.1 mph - N/A   Clear
11:15 PM 53.6 °F 42.8 °F 67% 29.94 in 10.0 mi SW 9.2 mph - N/A   Clear
11:35 PM 51.8 °F 44.6 °F 76% 29.94 in 10.0 mi SW 11.5 mph - N/A   Clear
11:55 PM 51.8 °F 44.6 °F 76% 29.95 in 10.0 mi SW 5.8 mph - 0.02 in   Clear